Regional Weather Roundup
Issued by NWS

Home | Current Version | Previous Version | Text Only | Print | Product List | Glossary Off
Versions: 1 2 3 4 5 6 7 8 9 10 11 12 13 14 15 16 17 18 19 20 21 22 23 24 25 26 27 28 29 30 31 32 33 34 35 36 37 38 39 40 41 42 43 44 45 46 47 48 49 50

000
ASUS45 KCYS 172010
RWRWY

WYOMING REGIONAL WEATHER ROUNDUP
NATIONAL WEATHER SERVICE CHEYENNE WY
100 PM MST WED JAN 17 2018

NOTE:  "FAIR" INDICATES FEW OR NO CLOUDS BELOW 12,000 FEET
WITH NO SIGNIFICANT WEATHER AND/OR OBSTRUCTIONS TO VISIBILITY.

WYZ001-172100-
YELLOWSTONE NATIONAL PARK

CITY           SKY/WX    TMP DP  RH WIND       PRES   REMARKS
LK YELLOWSTONE   N/A     20  16  84 E5        30.36F WCI  13
W YELLOWSTONE  NOT AVBL

$$
WYZ002>013-054>058-071-098>099-172100-
NORTHERN WYOMING

CITY           SKY/WX    TMP DP  RH WIND       PRES   REMARKS
JACKSON        FAIR      28  12  51 S3        30.39F
CODY           FAIR      25  15  66 N3        30.24F
GREYBULL       FAIR      19   8  62 N3        30.31F
WORLAND        FAIR      20  12  71 CALM      30.29F
SHERIDAN       FAIR      44  23  43 S3        30.20F
BUFFALO        FAIR      41  15  35 S15       30.24F
GILLETTE         N/A     40  32  73 MISG      30.24F
HULETT         FAIR      36  19  51 SW13      30.24F WCI  27
NEWCASTLE      FAIR      36  19  51 NW8       30.26F WCI  29

$$
WYZ014>020-022>026-101>103-172100-
CENTRAL WYOMING

CITY           SKY/WX    TMP DP  RH WIND       PRES   REMARKS
BIG PINEY      FAIR      37  18  46 S6        30.34F WCI  32
PINEDALE       FAIR      32  19  59 CALM      30.36F
DUBOIS         FAIR      41  14  33 W5        30.26F
LANDER         FAIR      27  18  69 CALM      30.30F
RIVERTON       FAIR      23  15  71 CALM      30.32F
CASPER         FAIR      41  15  35 SW21      30.29F
DOUGLAS        FAIR      45  23  42 W10       30.28F

$$
WYZ021-027>030-104>119-172100-
SOUTHERN WYOMING

CITY           SKY/WX    TMP DP  RH WIND       PRES   REMARKS
EVANSTON       FAIR      38  26  62 SW8       30.36F WCI  32
FORT BRIDGER   FAIR      43  26  51 W9        30.39F
ROCK SPRINGS   FAIR      38  21  50 W13       30.34F WCI  30
DIXON            N/A     38  10  31 W10       30.40S WCI  31
RAWLINS        FAIR      39  13  34 SW16      30.33F WCI  30
SARATOGA       FAIR      41  14  33 NW6       30.33F
LARAMIE        FAIR      35  12  38 VRB6      30.29F WCI  30
CHEYENNE       FAIR      45   9  23 N15G24    30.26F
TORRINGTON     FAIR      45  27  49 N14G24    30.25F

$$



USA.gov is the U.S. government's official web portal to all federal, state and local government web resources and services.